Location: Songkhla
(7.2000°N, 100.6000°E)
Time: 07:49:49
(UTC+07:00)

Cosmos 2184 Rocket - Pass Details

Date: 16 April 2026
Orbit: 957 x 1002 km, 82.9° (Epoch: 17 May)

Event Time Altitude Azimuth Distance (km) Brightness Sun altitude
Rises 18:59:21 0° 184° (S) 3,711 7.0 -8.9°
Reaches altitude 10° 19:01:52 10° 185° (S) 2,764 6.3 -9.5°
Maximum altitude 19:08:14 85° 272° (W) 1,008 4.2 -11.1°
Drops below altitude 10° 19:14:36 10° 2° (N) 2,763 6.5 -12.6°
Sets 19:17:08 0° 2° (N) 3,709 7.2 -13.3°
